Location: Unspecified
(35.6961°N, 0.0000°E)
Time: 11:08:58
(UTC+00:00)

Explorer 11/Cluster Stage 4 - Pass Details

Date: 30 May 2019
Orbit: 467 x 1260 km, 28.8° (Epoch: 17 June)

Event Time Altitude Azimuth Distance (km) Brightness Sun altitude
Rises 22:30:52 0° 222° (SW) 4,186 - -28.9°
Reaches altitude 10° 22:34:24 10° 211° (SSW) 3,185 - -29.2°
Maximum altitude 22:40:43 26° 159° (SSE) 2,103 - -29.7°
Drops below altitude 10° 22:46:27 10° 106° (ESE) 2,865 - -30.1°
Sets 22:49:27 0° 94° (E) 3,693 - -30.2°
